Regional Weather Roundup
Issued by NWS Boston, MA

Home | Current Version | Previous Version | Text Only | Print | Product List | Glossary On
Versions: 1 2 3 4 5 6 7 8 9 10 11 12 13 14 15 16 17 18 19 20 21 22 23 24 25 26 27 28 29 30 31 32 33 34 35 36 37 38 39 40 41 42 43 44 45 46 47 48 49 50
000
ASUS41 KBOX 280910
RWRBOX

REGIONAL WEATHER ROUNDUP
NATIONAL WEATHER SERVICE TAUNTON MA
400 AM EST FRI NOV 28 2014

NOTE:  "FAIR" INDICATES FEW OR NO CLOUDS BELOW 12,000 FEET WITH NO
SIGNIFICANT WEATHER AND/OR OBSTRUCTIONS TO VISIBILITY.  THE FOLLOWING
OBSERVATION LOCATIONS DO NOT REPORT PRESENT WEATHER...PROVINCETOWN...
SMITHFIELD...BLOCK ISLAND...KEENE...AND OXFORD.

MAZALL-281000-
EASTERN MASSACHUSETTS

CITY           SKY/WX    TMP DP  RH WIND       PRES   REMARKS
BOSTON         LGT SNOW  30  27  88 NW12      30.00S VSB 1   WCI  20
BEVERLY        LGT SNOW  29  25  85 N10       29.98S FOG     WCI  20
LAWRENCE       LGT SNOW  28  26  92 N5        30.02S FOG     WCI  23
BEDFORD        LGT SNOW  28  26  92 N10       29.99S FOG     WCI  19
BLUE HILL        N/A     27  26  96 NW10      29.94S WCI  17
NORWOOD        LGT SNOW  30  27  88 NW5       30.00R FOG     WCI  25
MARSHFIELD     LGT SNOW N/A N/A N/A NW6       29.97S
PLYMOUTH       LGT SNOW  30  29  96 NW9       29.96S FOG     WCI  22
TAUNTON        LGT SNOW  31  28  89 NW5       29.97S FOG     WCI  26
NEW BEDFORD    CLOUDY    30  29  96 NW6       29.96S WCI  24
$$

MAZALL-281000-
CAPE COD AND THE ISLANDS

CITY           SKY/WX    TMP DP  RH WIND       PRES   REMARKS
FALMOUTH       FLURRIES  32  30  93 NW8       29.94S WCI  25
HYANNIS        CLOUDY    35  33  92 NW6       29.92S WCI  30
CHATHAM        CLOUDY    36  35  96 NW6       29.92F WCI  31
PROVINCETOWN   CLOUDY    39  34  81 E3        29.93S
NANTUCKET      CLOUDY    38  34  85 N13       29.92S WCI  30
MARTHAS VNYRD  CLOUDY    33  31  92 NW9       29.95R WCI  25
$$

MAZALL-281000-
CENTRAL AND WESTERN MASSACHUSETTS

CITY           SKY/WX    TMP DP  RH WIND       PRES   REMARKS
WORCESTER      CLOUDY    25  23  92 NW8       29.96R WCI  16
FITCHBURG      LGT SNOW  29  25  85 N3        30.01S FOG
ORANGE           N/A     26  23  88 NW6       30.01R WCI  19
SPRINGFIELD    CLOUDY    28  25  89 N3        30.02R
WESTFIELD      CLOUDY    29  27  92 CALM      30.02S
NORTH ADAMS    FLURRIES  26  23  88 NW5       30.02R WCI  20
PITTSFIELD     FLURRIES  25  22  88 W7        29.97S WCI  17
$$

RIZALL-281000-
RHODE ISLAND

CITY           SKY/WX    TMP DP  RH WIND       PRES   REMARKS
PROVIDENCE     CLOUDY    31  26  82 NW13G18   30.00R WCI  21
NEWPORT        CLOUDY    32  27  81 NW12      29.97S WCI  23
BLOCK ISLAND   CLOUDY    34  25  69 NW14      29.98S WCI  24
SMITHFIELD     CLOUDY    28  21  74 N9        29.97R WCI  20
WESTERLY       CLOUDY    32  28  85 NW8       30.01R WCI  25
$$

CTZALL-281000-
CONNECTICUT

CITY           SKY/WX    TMP DP  RH WIND       PRES   REMARKS
BRADLEY INTL   CLOUDY    31  26  82 NW5       30.03R WCI  26
HARTFORD       CLOUDY    32  26  78 VRB6      30.04R WCI  26
BRIDGEPORT     CLEAR     31  25  78 NW10      30.05S WCI  22
DANBURY        PTCLDY    26  22  84 W3        30.05S
GROTON         FLURRIES  32  27  81 NW12      30.01R WCI  23
NEW HAVEN      PTCLDY    35  24  64 NW9       30.04S WCI  28
CHESTER        CLOUDY    32  28  86 NW8       30.02R WCI  25
MERIDEN        CLOUDY    31  23  72 NW9       30.04S WCI  23
WILLIMANTIC    CLOUDY    31  25  78 NW6       30.02R WCI  25
OXFORD         CLEAR     27  18  69 NW6       30.03S WCI  20
$$

MEZ002-015-021-024-NHZ003-005-008-011-012-014-VTZ005-008-281000-
NORTHERN NEW ENGLAND

CITY           SKY/WX    TMP DP  RH WIND       PRES   REMARKS
PORTLAND ME    CLOUDY    28  18  66 N10       30.02S WCI  19
BANGOR ME      CLOUDY     9   6  88 CALM      30.03F
CONCORD NH     NOT AVBL
MANCHESTER NH  LGT SNOW  27  24  89 NW7       30.00S FOG     WCI  19
NASHUA NH      LGT SNOW  28  27  96 NW6       30.02S FOG     WCI  22
PORTSMOUTH NH  SNOWSHWR  27  22  80 N13       29.99S WCI  17
JAFFREY NH     LGT SNOW  25  23  92 W3        29.98R FOG
KEENE NH       CLOUDY    27  25  93 CALM      30.01R
BURLINGTON VT  LGT SNOW  25  22  88 CALM      30.04S VSB 1
MT. WASHINGTON SNOW       7   7 100 SW24        N/A  VSB 1/16WCI -15
$$

NYZ052-076-281000-
EASTERN NEW YORK

CITY           SKY/WX    TMP DP  RH WIND       PRES   REMARKS
ALBANY         FLURRIES  28  25  88 CALM      30.06S
NEW YORK CITY  CLEAR     32  23  69 NW14      30.08S WCI  22
$$

ANZALL-281000-
MARINE OBSERVATIONS

STATION/POSITION TIME  TEMP    WIND        PRES    VSBY  WAVE
                       AIR SEA DIR/SP/G                  HT/PER
                 (UTC) (F)     (DEG/KT/KT) (MB)    (MI)  (FT/S)
BOSTON BUOY      0850   34 49  340/ 17/ 21 1014.1F         5/ 5
BUZZARDS BAY     0800          340/ 20/ 22 1015.0S
NANTUCKET SOUND  0850   36 47  330/ 16/ 19 1013.1R         2/ 4
MASS BAY-STELLWA NOT AVBL
ISLE OF SHOALS   0900   30      10/ 19/ 23 1014.6F
S OF BLOCK IS    0808      55                N/A           5/10
$$

......................KEY.........................
  SKY/WX - SKY CONDITION/PRESENT WEATHER
  TMP    - TEMPERATURE IN FAHRENHEIT
  DWPT   - DEWPOINT IN FAHRENHEIT
  RH     - RELATIVE HUMIDITY IN PERCENT
  WIND   - DIRECTION AND SPEED IN MPH
  PRES   - MEAN SEA LEVEL PRESSURE IN INCHES OF HG
  WCI    - WIND CHILL INDEX
  VSB    - VISIBILITY IN MILES
  HX     - HEAT INDEX
  TC     - TEMPERATURE IN CELSIUS
  VRB    - VARIABLE WIND DIRECTION
  N/A    - NOT AVAILABLE


USA.gov is the U.S. government's official web portal to all federal, state and local government web resources and services.